User: anonymous   Login
Location: Arborea
(39.7744°N, 8.5819°E)
Time: 06:44:09
(UTC+00:00)
Language:

SL-16 R/B - Orbit

View from above orbital plane
View from above orbital plane
View from above satellite
View from above satellite

Ground track
Ground track

The orbit data is extracted from the following two-line orbital elements,

1 31793U 07029B   22016.71556876 -.00000298  00000-0 -13055-3 0  9995
2 31793  70.9763 111.6278 0002271 265.8584 256.0934 14.14459213751492
Epoch (UTC): 16 January 2022 17:10:25
Eccentricity: 0.0002271
inclination: 70.9763°
perigee height: 842 km
apogee height: 846 km
right ascension of ascending node: 111.6278°
argument of perigee: 265.8584°
revolutions per day: 14.14459213
mean anomaly at epoch: 256.0934°
orbit number at epoch: 75149

The dashed part of the orbit path shows where the satellite is in the earth's shadow,  

DLR